Location: Cheyres
(46.8153°N, 6.7877°E)
Time: 11:09:51
(UTC+00:00)

POLYITAN 1 - Visible Passes

Search period start: 25 June 2022 00:00
Search period end: 05 July 2022 00:00
Orbit: 585 x 607 km, 98.0° (Epoch: 24 June)

Date Brightness Start Highest point End Pass type
(mag) Time Alt. Az. Time Alt. Az. Time Alt. Az.
25 Jun ? 00:20:55 10° NE 00:23:48 18° E 00:25:50 13° SE visible
25 Jun ? 01:55:38 10° N 01:59:41 47° WNW 02:02:30 18° SW visible
26 Jun ? 00:30:29 10° NE 00:33:48 22° E 00:35:50 16° SE visible
26 Jun ? 02:05:38 10° N 02:09:32 38° WNW 02:12:30 16° SW visible
27 Jun ? 00:40:07 10° NE 00:43:46 27° E 00:45:50 19° SE visible
27 Jun ? 02:15:40 10° N 02:19:23 31° WNW 02:22:30 13° SW visible
28 Jun ? 00:49:50 10° NNE 00:53:44 34° E 00:55:50 21° SSE visible
28 Jun ? 02:25:44 10° N 02:29:12 25° WNW 02:32:29 11° WSW visible
29 Jun ? 00:59:36 10° NNE 01:03:39 43° E 01:05:49 24° SSE visible
29 Jun ? 02:35:51 10° NNW 02:39:00 21° WNW 02:42:09 10° WSW visible
30 Jun ? 01:09:24 10° NNE 01:13:34 55° E 01:15:48 26° S visible
30 Jun ? 02:46:03 10° NNW 02:48:47 17° WNW 02:51:32 10° WSW visible
01 Jul ? 01:19:14 10° NNE 01:23:29 71° ESE 01:25:46 26° S visible
01 Jul ? 02:56:22 10° NNW 02:58:33 14° WNW 03:00:46 10° W visible
02 Jul ? 01:29:06 10° NNE 01:33:22 89° SE 01:35:44 26° SSW visible
03 Jul ? 00:05:28 10° ENE 00:07:07 12° E 00:08:46 10° ESE visible
03 Jul ? 01:38:59 10° N 01:43:13 73° WNW 01:45:42 24° SSW visible
04 Jul ? 00:14:36 10° NE 00:17:05 15° E 00:18:59 12° ESE visible
04 Jul ? 01:48:54 10° N 01:53:04 57° WNW 01:55:39 22° SW visible
